EVA82T LEBL-DAAG

Flight info

Callsign EVA82T
Flight time 0h 46m
Altitude 33000
Route LARPA N859 GENIO DCT BUYAH UA27 ALR
Aircraft B77W/H-SDE1E2E3FGHIJ2J3J4J5M1RWXY/LB1D1

Departure

Time 2026-05-08 22:42
Airport Josep Tarradellas Barcelona-El Prat Airport (LEBL)

Arrival

Time 2026-05-08 23:29
Airport Houari Boumediene Airport (DAAG)
Time Latitude Longitude Altitude Speed Heading
2026-05-08 22:12 41.28897 2.07688 24 ft 0 kts 284°
2026-05-08 22:31 41.28894 2.07702 27 ft 4 kts 283°
2026-05-08 22:31 41.28888 2.07737 28 ft 4 kts 279°
2026-05-08 22:31 41.28885 2.07772 29 ft 4 kts 275°
2026-05-08 22:31 41.28883 2.07808 29 ft 4 kts 270°
2026-05-08 22:32 41.28883 2.07844 29 ft 4 kts 264°
2026-05-08 22:32 41.28887 2.07879 28 ft 4 kts 256°
2026-05-08 22:32 41.28895 2.07911 29 ft 3 kts 246°
2026-05-08 22:32 41.28896 2.07915 29 ft 0 kts 245°
2026-05-08 22:36 41.28895 2.07914 29 ft 1 kts 245°
2026-05-08 22:36 41.28885 2.07885 28 ft 6 kts 245°
2026-05-08 22:37 41.28833 2.07863 23 ft 12 kts 171°
2026-05-08 22:37 41.28741 2.07912 24 ft 17 kts 152°
2026-05-08 22:37 41.28633 2.07975 23 ft 11 kts 172°
2026-05-08 22:37 41.28581 2.07911 24 ft 11 kts 246°
2026-05-08 22:38 41.28549 2.07814 22 ft 12 kts 245°
2026-05-08 22:38 41.28515 2.07713 23 ft 12 kts 243°
2026-05-08 22:38 41.28478 2.07610 24 ft 13 kts 245°
2026-05-08 22:38 41.28442 2.07503 24 ft 13 kts 245°
2026-05-08 22:39 41.28375 2.07444 25 ft 13 kts 193°
2026-05-08 22:39 41.28290 2.07402 24 ft 13 kts 194°
2026-05-08 22:39 41.28231 2.07453 26 ft 9 kts 94°
2026-05-08 22:39 41.28262 2.07523 27 ft 9 kts 57°
2026-05-08 22:40 41.28273 2.07553 29 ft 0 kts 68°
2026-05-08 22:41 41.28274 2.07557 29 ft 5 kts 68°
2026-05-08 22:41 41.28352 2.07793 26 ft 65 kts 64°
2026-05-08 22:42 41.28668 2.08710 28 ft 149 kts 65°
2026-05-08 22:42 41.29137 2.10171 423 ft 176 kts 69°
2026-05-08 22:42 41.29470 2.11701 1362 ft 180 kts 90°
2026-05-08 22:42 41.29294 2.13316 2212 ft 179 kts 101°
2026-05-08 22:43 41.29085 2.15032 2797 ft 196 kts 99°
2026-05-08 22:43 41.28891 2.16867 3484 ft 205 kts 98°
2026-05-08 22:43 41.28702 2.18799 4200 ft 214 kts 99°
2026-05-08 22:43 41.28187 2.20688 4647 ft 233 kts 130°
2026-05-08 22:44 41.26761 2.21878 5034 ft 255 kts 167°
2026-05-08 22:44 41.24975 2.22231 5793 ft 264 kts 173°
2026-05-08 22:44 41.23126 2.22531 6720 ft 270 kts 172°
2026-05-08 22:44 41.21251 2.22849 7686 ft 274 kts 172°
2026-05-08 22:45 41.19345 2.23189 8607 ft 279 kts 172°
2026-05-08 22:45 41.17403 2.23553 9544 ft 284 kts 171°
2026-05-08 22:45 41.15427 2.23936 10419 ft 290 kts 172°
2026-05-08 22:45 41.13353 2.24349 10876 ft 315 kts 171°
2026-05-08 22:46 41.11105 2.24805 11111 ft 346 kts 171°
2026-05-08 22:46 41.08631 2.25314 11576 ft 369 kts 171°
2026-05-08 22:46 41.06060 2.25848 12530 ft 378 kts 172°
2026-05-08 22:46 41.03434 2.26396 13704 ft 383 kts 172°
2026-05-08 22:47 41.00781 2.26952 14787 ft 388 kts 172°
2026-05-08 22:47 40.98097 2.27515 15831 ft 393 kts 172°
2026-05-08 22:47 40.95380 2.28084 16862 ft 399 kts 173°
2026-05-08 22:47 40.92614 2.28663 17879 ft 405 kts 173°
2026-05-08 22:48 40.89804 2.29250 18803 ft 411 kts 173°
2026-05-08 22:48 40.86963 2.29844 19725 ft 415 kts 173°
2026-05-08 22:48 40.84101 2.30443 20671 ft 418 kts 173°
2026-05-08 22:48 40.81211 2.31046 21587 ft 422 kts 173°
2026-05-08 22:49 40.78334 2.31646 22460 ft 426 kts 173°
2026-05-08 22:49 40.72410 2.32880 24078 ft 435 kts 173°
2026-05-08 22:49 40.69411 2.33505 24792 ft 438 kts 173°
2026-05-08 22:50 40.66376 2.34135 25494 ft 442 kts 174°
2026-05-08 22:50 40.63327 2.34776 26168 ft 446 kts 173°
2026-05-08 22:50 40.61306 2.35316 26578 ft 450 kts 169°
2026-05-08 22:50 40.58262 2.36381 27184 ft 455 kts 168°
2026-05-08 22:51 40.55192 2.37486 27774 ft 460 kts 168°
2026-05-08 22:51 40.52082 2.38581 28351 ft 464 kts 168°
2026-05-08 22:51 40.48954 2.39665 28897 ft 468 kts 169°
2026-05-08 22:51 40.45789 2.40758 29413 ft 472 kts 169°
2026-05-08 22:52 40.42595 2.41862 29886 ft 476 kts 169°
2026-05-08 22:52 40.39385 2.42973 30399 ft 477 kts 169°
2026-05-08 22:52 40.36163 2.44088 30824 ft 480 kts 170°
2026-05-08 22:52 40.32918 2.45210 31200 ft 484 kts 170°
2026-05-08 22:53 40.29689 2.46325 31583 ft 487 kts 170°
2026-05-08 22:53 40.26407 2.47459 32006 ft 489 kts 171°
2026-05-08 22:53 40.23105 2.48598 32447 ft 491 kts 171°
2026-05-08 22:53 40.19791 2.49738 32855 ft 493 kts 172°
2026-05-08 22:54 40.16466 2.50883 33253 ft 495 kts 172°
2026-05-08 22:54 40.13126 2.52033 33683 ft 497 kts 172°
2026-05-08 22:54 40.09777 2.53187 34118 ft 498 kts 172°
2026-05-08 22:54 40.06426 2.54342 34540 ft 497 kts 172°
2026-05-08 22:55 40.03081 2.55495 34963 ft 497 kts 172°
2026-05-08 22:55 39.99729 2.56647 35026 ft 499 kts 172°
2026-05-08 22:55 39.93066 2.58935 35035 ft 497 kts 172°
2026-05-08 22:56 39.86372 2.61227 35032 ft 499 kts 173°
2026-05-08 22:56 39.79639 2.63525 35027 ft 501 kts 173°
2026-05-08 22:57 39.72881 2.65829 35031 ft 503 kts 173°
2026-05-08 22:57 39.66069 2.68147 35011 ft 506 kts 173°
2026-05-08 22:58 39.59288 2.70452 35022 ft 507 kts 173°
2026-05-08 22:58 39.52453 2.72771 35024 ft 508 kts 173°
2026-05-08 22:59 39.45611 2.75086 35018 ft 508 kts 173°
2026-05-08 22:59 39.38760 2.77426 35028 ft 510 kts 173°
2026-05-08 23:00 39.31805 2.79844 35030 ft 524 kts 173°
2026-05-08 23:00 39.24722 2.82309 35032 ft 535 kts 173°
2026-05-08 23:01 39.17492 2.84820 35033 ft 539 kts 173°
2026-05-08 23:01 39.10238 2.87332 35021 ft 539 kts 173°
2026-05-08 23:02 39.03005 2.89828 35016 ft 536 kts 173°
2026-05-08 23:02 38.95799 2.92265 35009 ft 534 kts 174°
2026-05-08 23:03 38.88610 2.94688 35010 ft 534 kts 173°
2026-05-08 23:03 38.81462 2.97137 35008 ft 535 kts 173°
2026-05-08 23:04 38.74259 2.99604 35006 ft 535 kts 173°
2026-05-08 23:04 38.67059 3.02058 34996 ft 535 kts 173°
2026-05-08 23:05 38.59851 3.04507 35011 ft 535 kts 173°
2026-05-08 23:05 38.52646 3.06950 35010 ft 536 kts 173°
2026-05-08 23:06 38.45431 3.09392 35007 ft 535 kts 173°
2026-05-08 23:06 38.38232 3.11823 35001 ft 535 kts 173°
2026-05-08 23:07 38.31073 3.14097 34995 ft 526 kts 178°
2026-05-08 23:07 38.27523 3.14778 34971 ft 507 kts 182°
2026-05-08 23:07 38.24022 3.15063 34067 ft 501 kts 189°
2026-05-08 23:08 38.20552 3.15014 33152 ft 498 kts 190°
2026-05-08 23:08 38.17081 3.14996 32194 ft 500 kts 188°
2026-05-08 23:08 38.13602 3.15009 31300 ft 497 kts 190°
2026-05-08 23:08 38.10201 3.14745 30697 ft 483 kts 194°
2026-05-08 23:09 38.06928 3.14074 30039 ft 470 kts 200°
2026-05-08 23:09 38.03789 3.13204 29339 ft 465 kts 200°
2026-05-08 23:09 38.00646 3.12345 28668 ft 460 kts 200°
2026-05-08 23:09 37.97532 3.11509 28026 ft 454 kts 200°
2026-05-08 23:10 37.94456 3.10693 27391 ft 449 kts 200°
2026-05-08 23:10 37.91409 3.09890 26766 ft 445 kts 200°
2026-05-08 23:10 37.88392 3.09099 26156 ft 441 kts 199°
2026-05-08 23:10 37.85394 3.08314 25552 ft 437 kts 199°
2026-05-08 23:11 37.82429 3.07539 24954 ft 433 kts 199°
2026-05-08 23:11 37.79485 3.06770 24368 ft 430 kts 199°
2026-05-08 23:11 37.76565 3.06008 23757 ft 427 kts 199°
2026-05-08 23:11 37.73653 3.05247 23089 ft 425 kts 199°
2026-05-08 23:12 37.70809 3.04505 22465 ft 421 kts 198°
2026-05-08 23:12 37.67958 3.03763 21877 ft 416 kts 198°
2026-05-08 23:12 37.65127 3.03027 21284 ft 412 kts 198°
2026-05-08 23:12 37.62333 3.02302 20720 ft 408 kts 198°
2026-05-08 23:13 37.59560 3.01581 20161 ft 405 kts 198°
2026-05-08 23:13 37.56809 3.00867 19602 ft 402 kts 198°
2026-05-08 23:13 37.54079 3.00159 19053 ft 399 kts 197°
2026-05-08 23:13 37.51368 2.99455 18492 ft 397 kts 197°
2026-05-08 23:14 37.48666 2.98755 17876 ft 395 kts 197°
2026-05-08 23:14 37.45984 2.98060 17304 ft 391 kts 197°
2026-05-08 23:14 37.43359 2.97381 16755 ft 388 kts 197°
2026-05-08 23:14 37.40722 2.96699 16201 ft 385 kts 196°
2026-05-08 23:15 37.38107 2.96024 15665 ft 382 kts 196°
2026-05-08 23:15 37.35514 2.95354 15132 ft 379 kts 195°
2026-05-08 23:15 37.32936 2.94689 14603 ft 377 kts 195°
2026-05-08 23:15 37.30375 2.94029 14064 ft 375 kts 195°
2026-05-08 23:16 37.27824 2.93371 13514 ft 373 kts 194°
2026-05-08 23:16 37.25311 2.92725 12937 ft 371 kts 194°
2026-05-08 23:16 37.22786 2.92077 12385 ft 369 kts 194°
2026-05-08 23:16 37.20283 2.91434 11853 ft 366 kts 194°
2026-05-08 23:17 37.17793 2.90795 11332 ft 363 kts 194°
2026-05-08 23:17 37.15322 2.90161 10852 ft 360 kts 194°
2026-05-08 23:17 37.12906 2.89543 10705 ft 348 kts 194°
2026-05-08 23:17 37.10574 2.88948 10545 ft 337 kts 195°
2026-05-08 23:18 37.08312 2.88370 10404 ft 326 kts 195°
2026-05-08 23:18 37.06119 2.87810 10259 ft 316 kts 195°
2026-05-08 23:18 37.04002 2.87269 10169 ft 304 kts 195°
2026-05-08 23:18 37.01967 2.86750 10083 ft 293 kts 195°
2026-05-08 23:19 37.00030 2.86254 9957 ft 283 kts 195°
2026-05-08 23:19 36.98122 2.85766 9750 ft 277 kts 195°
2026-05-08 23:19 36.96237 2.85283 9431 ft 275 kts 195°
2026-05-08 23:19 36.94362 2.84802 9065 ft 275 kts 195°
2026-05-08 23:20 36.92684 2.84271 8671 ft 269 kts 204°
2026-05-08 23:20 36.90988 2.83267 8263 ft 270 kts 210°
2026-05-08 23:20 36.89348 2.82147 7944 ft 268 kts 211°
2026-05-08 23:20 36.87728 2.81013 7632 ft 266 kts 211°
2026-05-08 23:21 36.86110 2.79871 7285 ft 266 kts 212°
2026-05-08 23:21 36.84462 2.78853 6884 ft 265 kts 197°
2026-05-08 23:21 36.82619 2.78914 6413 ft 275 kts 165°
2026-05-08 23:21 36.80818 2.79717 5955 ft 277 kts 163°
2026-05-08 23:22 36.78986 2.80504 5554 ft 278 kts 163°
2026-05-08 23:22 36.77155 2.81276 5240 ft 277 kts 164°
2026-05-08 23:22 36.75337 2.82037 4917 ft 275 kts 164°
2026-05-08 23:22 36.73535 2.82789 4651 ft 270 kts 163°
2026-05-08 23:23 36.71812 2.83580 4506 ft 258 kts 154°
2026-05-08 23:23 36.70533 2.85071 4380 ft 252 kts 122°
2026-05-08 23:23 36.70032 2.87102 4353 ft 239 kts 100°
2026-05-08 23:23 36.69872 2.89099 4198 ft 230 kts 95°
2026-05-08 23:24 36.69807 2.91040 3983 ft 216 kts 94°
2026-05-08 23:24 36.69768 2.92834 3731 ft 199 kts 93°
2026-05-08 23:24 36.69732 2.94485 3502 ft 180 kts 94°
2026-05-08 23:24 36.69697 2.95968 3307 ft 165 kts 94°
2026-05-08 23:25 36.69663 2.97393 3139 ft 164 kts 94°
2026-05-08 23:25 36.69627 2.98832 2938 ft 168 kts 94°
2026-05-08 23:25 36.69594 3.00294 2740 ft 168 kts 93°
2026-05-08 23:25 36.69558 3.01758 2499 ft 167 kts 92°
2026-05-08 23:26 36.69527 3.03169 2222 ft 163 kts 92°
2026-05-08 23:26 36.69497 3.04578 2041 ft 161 kts 92°
2026-05-08 23:26 36.69463 3.05951 1836 ft 157 kts 92°
2026-05-08 23:26 36.69431 3.07332 1638 ft 161 kts 92°
2026-05-08 23:27 36.69399 3.08720 1412 ft 163 kts 92°
2026-05-08 23:27 36.69367 3.10125 1185 ft 159 kts 91°
2026-05-08 23:27 36.69333 3.11500 942 ft 156 kts 91°
2026-05-08 23:27 36.69304 3.12817 753 ft 149 kts 91°
2026-05-08 23:28 36.69272 3.14081 564 ft 146 kts 90°
2026-05-08 23:28 36.69249 3.15337 373 ft 146 kts 91°
2026-05-08 23:28 36.69217 3.16591 204 ft 144 kts 90°
2026-05-08 23:28 36.69184 3.17812 84 ft 134 kts 91°
2026-05-08 23:29 36.69163 3.18810 83 ft 94 kts 91°
2026-05-08 23:29 36.69153 3.19429 81 ft 49 kts 94°
2026-05-08 23:29 36.69190 3.19841 73 ft 48 kts 64°
2026-05-08 23:29 36.69298 3.20144 70 ft 35 kts 81°
2026-05-08 23:30 36.69314 3.20270 65 ft 11 kts 44°
2026-05-08 23:30 36.69387 3.20288 69 ft 11 kts 357°
2026-05-08 23:30 36.69453 3.20236 67 ft 12 kts 301°
2026-05-08 23:30 36.69453 3.20135 75 ft 12 kts 266°
2026-05-08 23:31 36.69453 3.20026 75 ft 13 kts 275°
2026-05-08 23:31 36.69526 3.19979 67 ft 13 kts
2026-05-08 23:31 36.69617 3.19987 75 ft 13 kts
2026-05-08 23:31 36.69706 3.19989 75 ft 8 kts
2026-05-08 23:32 36.69756 3.20014 67 ft 9 kts 60°
2026-05-08 23:32 36.69756 3.20089 66 ft 9 kts 89°
2026-05-08 23:32 36.69757 3.20115 68 ft 0 kts 90°